Location: Aultman
(40.9284°N, 81.4173°W)
Time: 09:33:48
(UTC+00:00)

Cosmos 2082 Rocket - Pass Details

Date: 24 January 2021
Orbit: 832 x 855 km, 71.0° (Epoch: 02 March)

Event Time Altitude Azimuth Distance (km) Brightness Sun altitude
Rises 23:41:18 0° 349° (N) 3,434 5.3 -12.9°
Reaches altitude 10° 23:44:47 10° 10° (N) 2,492 4.4 -13.5°
Maximum altitude 23:48:16 16° 48° (NE) 2,076 3.7 -14.2°
Enters shadow 23:48:18 16° 48° (NE) 2,076 3.7 -14.2°
